STARLINK-35526 (65931 NORAD) Tracking and Keplerian Element Data

This shows tracking and keplerian element data for the satellite.

Feedback or suggestion? Click here.




ElementValue
Catalog65931
NameSTARLINK-35526
Epoch Orbit1209
Epoch Day353.25319848
Epoch Year2025
RAAN179.2393
Inclination53.1595
Eccentricity0.0001263
Argument of Perigee84.5174
Mean Anonmoly275.5971
Mean Motion15.30195449
Decay Rate0.00015957
L11 65931U 25225X 25353.25319848 .00015957 00000+0 54980-3 0 9993
L22 65931 53.1595 179.2393 0001263 84.5174 275.5971 15.30195449 12098



Live tracking and technical data element details for STARLINK-35526 (NORAD 65931). STARLINK-35526 can be tracked NOW for your location showing map with azimuth and elevation plus other details from your city location.







IsCatalogInMostPopularTable: catalog: 65931, numindb: 10
Update: records affected: 1



GetName: 65931 STARLINK-35526

Hit Count: updated at: Tue, 21 Apr 2026 19:51:55 GMT